Location: Black Forest
(43.4794°N, 75.0081°W)
Time: 01:30:13
(UTC-05:00)

ISS - Visible Passes

Search period start: 11 February 2016 00:00
Search period end: 21 February 2016 00:00
Orbit: 399 x 408 km, 51.6° (Epoch: 10 February)

Date Brightness Start Highest point End Pass type
(mag) Time Alt. Az. Time Alt. Az. Time Alt. Az.
11 Feb -1.4 17:48:44 10° WNW 17:51:14 20° N 17:53:44 10° NE visible
11 Feb -1.1 19:25:46 10° NW 19:27:17 19° NNW 19:27:17 19° NNW visible
12 Feb -1.5 18:33:02 10° NW 18:35:31 20° N 18:36:45 16° NE visible
12 Feb 0.1 20:09:20 10° NW 20:09:23 10° NW 20:09:23 10° NW visible
13 Feb -1.9 19:16:41 10° NW 19:18:53 29° N 19:18:53 29° N visible
14 Feb -1.9 18:23:58 10° NW 18:26:44 25° NNE 18:28:24 17° ENE visible
14 Feb -0.4 20:00:13 10° WNW 20:01:02 16° WNW 20:01:02 16° WNW visible
15 Feb -3.2 19:07:26 10° NW 19:10:35 58° NNE 19:10:35 58° NNE visible
16 Feb -2.6 18:14:41 10° NW 18:17:45 37° NNE 18:20:13 14° E visible
16 Feb -1.0 19:51:10 10° WNW 19:52:52 24° W 19:52:52 24° W visible
17 Feb -3.1 18:58:10 10° WNW 19:01:24 67° SW 19:02:36 34° SE visible
18 Feb -3.3 18:05:17 10° NW 18:08:32 68° NNE 18:11:45 10° ESE visible
18 Feb -0.7 19:42:33 10° W 19:44:37 16° SW 19:45:07 16° SW visible
19 Feb -1.5 18:49:02 10° WNW 18:51:54 29° SW 18:54:46 10° SSE visible
